Location: Huberhof
(49.2050°N, 7.4980°E)
Time: 05:17:21
(UTC+00:00)

ERBS - Pass Details

Date: 29 October 2020
Orbit: 407 x 422 km, 57.0° (Epoch: 25 November)

Event Time Altitude Azimuth Distance (km) Brightness Sun altitude
Rises 16:40:58 0° 286° (WNW) 2,361 7.2 -5.2°
Reaches altitude 10° 16:43:23 10° 303° (WNW) 1,501 5.7 -5.5°
Maximum altitude 16:46:03 21° 356° (N) 996 4.1 -6.0°
Drops below altitude 10° 16:48:43 10° 48° (NE) 1,510 4.5 -6.4°
Enters shadow 16:49:25 - 55° (NE) 1,739 4.8 -6.5°
